sat.trackr.live / text

‹ back to catalog

STARLINK-37689

NORAD 69308 · 2026-119N

PAYLOAD ACTIVE UNKNOWN

§ Identity

Operator
Country
US
Launch date
2026-05-30
Launch site
AFWTR
Launch vehicle
Mass (kg)
RCS (m²)

Purposes: comms

External: N2YO · Heavens-Above · Gunter

§ Orbital elements

Epoch: 2026-09-19T12:27:29.594592Z

Period
93.91 min
Inclination
97.2844°
Eccentricity
0.0000466
Mean motion
15.33455268 rev/d
Perigee alt
465.2 km
Apogee alt
465.8 km
Semi-major
6,843.6 km
B*
3.4280e-4
RAAN
287.2767°
Arg perigee
46.4177°
Mean anomaly
313.7105°
Rev number
1,851

§ Raw data

STARLINK-376891 69308U 26119N   26262.51909253  .00011011  00000+0  34280-3 0  99902 69308  97.2844 287.2767 0000466  46.4177 313.7105 15.33455268 18513

JSON: /api/v1/satellites/69308 · /tle

For live sub-satellite position, see the globe view (requires WebGL).

§ Visibility from observer

Set your observer location to see the next 7 days of passes ≥ 10°. The values pass through the URL so the page stays shareable.

No JS? Fill the form by hand. The geolocation button needs JavaScript.